RH
95 98 98 95 98 96 97 99 99 100 95 91 60 39 36 34 37 41 45 45 49 54 54 56 56 59 58 62 73 77 83 87 88 89 68 64 62 58 46 35 40 34 30 31 32 29 27
98 93 95 98 99 98 98 98 97 99 98 82 49 39 38 34 35 39 43 43 46 51 49 55 55 55 57 77 89 82 89 87 89 79 84 69 62 50 45 36 31 29 30 31 29 28 28
95 95 96 96 99 99 96 98 94 98 93 49 37 36 37 36 35 38 38 40 41 46 47 52 52 58 68 84 89 87 84 83 79 78 79 85 67 48 39 35 30 31 33 29 31 28 28
95 95 96 97 97 98 98 96 98 95 93 33 32 32 35 35 35 33 32 36 40 42 44 49 57 63 75 69 69 74 82 75 75 73 77 75 64 51 36 30 30 29 28 32 31 30 27
96 94 97 99 99 99 100 99 99 95 74 28 30 31 34 35 34 31 28 29 37 41 44 47 55 58 79 66 60 63 62 64 71 73 74 64 49 39 34 34 33 33 36 30 32 31 27
95 96 96 97 96 99 98 99 96 59 42 30 30 36 34 34 33 31 26 30 34 40 44 46 52 65 70 70 67 62 62 64 62 64 66 58 38 37 34 34 36 30 37 34 32 32 27
97 96 97 98 96 96 97 97 92 46 28 30 34 33 32 33 33 33 27 30 35 34 39 47 56 64 75 61 65 64 71 69 56 64 80 42 45 46 36 31 28 27 28 33 35 32 28
97 96 97 97 90 78 81 89 91 78 30 29 42 42 38 32 33 32 30 40 54 62 41 40 42 48 50 59 58 59 60 62 66 88 56 42 50 45 41 35 30 30 31 35 34 31 26
97 96 97 97 83 64 64 62 67 77 39 30 41 41 44 37 33 33 47 60 59 65 39 36 40 42 45 50 48 56 53 55 50 51 42 45 50 46 36 34 31 35 28 34 31 30 26
97 96 84 79 66 66 62 57 48 42 31 29 42 40 43 35 37 41 57 58 56 60 54 40 37 40 38 40 42 39 49 42 42 45 46 47 43 39 37 37 32 32 39 32 33 28 34
96 91 65 59 63 62 62 60 46 44 38 31 42 39 43 38 41 50 57 54 56 51 72 36 38 34 37 38 40 40 40 39 48 50 44 57 52 42 42 48 45 40 33 30 29 32 50
94 76 62 59 61 60 59 56 44 42 48 32 43 40 42 47 41 54 53 55 48 79 70 45 43 46 38 39 43 41 42 36 36 40 42 53 49 55 48 44 41 39 27 25 25 25 62
87 76 68 63 61 59 57 51 43 38 42 36 40 40 42 43 52 51 52 51 86 83 44 50 53 46 43 42 40 44 50 51 49 87 80 42 50 52 55 38 36 28 25 64 47 59 32
98 81 73 68 64 61 56 50 43 37 39 41 37 43 46 54 53 57 51 45 66 55 50 47 51 40 46 46 42 48 46 52 50 44 46 64 59 60 58 57 41 41 30 58 40 36 32
93 90 76 71 70 65 60 52 40 35 36 43 43 48 48 56 62 55 42 89 77 49 58 60 44 40 40 44 42 42 54 53 52 52 36 44 53 52 58 50 50 41 37 38 57 63 48
91 93 81 74 71 66 61 54 42 30 36 44 50 53 60 57 55 46 57 67 58 54 60 55 48 48 44 47 43 44 48 56 55 52 49 37 44 57 52 48 46 42 42 41 39 50 33
87 84 81 77 72 67 62 58 47 26 34 44 47 42 53 54 44 42 78 60 57 53 56 54 55 48 47 49 50 52 50 56 57 55 47 47 30 47 49 41 45 42 39 42 42 49 32
84 82 80 78 76 72 65 60 55 35 30 42 57 67 46 46 52 58 55 55 56 56 53 54 50 49 48 46 46 53 56 59 57 59 48 52 36 39 38 52 54 48 44 40 33 46 46
83 81 79 77 76 76 70 64 56 46 42 49 46 59 41 40 55 56 59 58 58 55 53 52 50 48 45 44 38 50 52 61 56 57 54 47 42 46 40 44 52 56 49 46 42 45 42
81 81 79 79 76 77 73 67 60 48 40 45 42 67 44 48 52 44 48 53 50 56 53 51 48 46 41 40 41 41 42 58 63 60 63 49 45 38 32 33 46 52 58 49 39 50 30
83 82 82 81 75 77 73 68 61 50 42 41 52 61 61 57 47 46 46 46 48 48 51 49 44 47 43 37 38 38 48 45 55 63 52 33 28 51 35 40 46 47 48 59 54 42 33
85 86 82 80 73 73 73 69 65 51 41 49 44 44 57 54 59 50 49 49 46 48 45 49 42 46 46 39 37 35 42 44 40 51 50 49 39 48 37 46 47 46 36 40 49 52 55
87 87 85 86 77 72 73 70 68 58 47 65 76 72 52 73 57 49 46 44 45 47 50 49 46 46 46 44 45 46 44 46 50 51 50 49 46 48 45 49 46 45 38 42 42 42 38
91 91 88 92 87 73 75 72 71 67 60 66 76 74 52 38 56 48 51 46 48 50 48 50 49 48 53 53 51 50 50 55 56 59 58 53 48 56 62 50 63 40 35 38 39 38 39
100 100 95 98 92 86 76 75 72 73 67 68 78 73 62 46 50 55 59 51 53 51 53 51 54 54 55 48 51 47 46 51 63 64 61 58 50 58 66 55 39 40 40 40 38 34 34
100 100 100 100 98 96 89 79 78 74 75 69 74 76 71 58 41 54 55 53 51 52 52 52 60 61 51 50 48 52 40 43 45 66 65 61 56 53 61 62 44 34 35 34 33 39 34
92 91 93 96 100 100 100 99 85 83 78 78 73 78 79 74 63 54 52 50 53 56 54 60 59 60 53 52 53 52 49 46 42 49 69 68 65 65 58 59 45 36 40 35 44 40 35
76 78 77 78 82 86 96 100 100 91 84 84 76 77 79 78 71 73 58 59 64 60 53 63 61 65 60 58 56 54 54 50 48 48 59 55 62 64 63 68 72 41 43 42 39 39 38
86 77 69 64 62 68 73 85 96 100 99 92 92 79 82 81 72 75 74 66 54 54 56 66 62 65 54 60 62 60 61 62 54 48 60 55 46 47 49 45 45 41 40 38 41 43 43
Wind_Speed
15 16 16 16 17 18 18 18 16 14 11 11 10 10 12 14 14 12 10 7 6 8 10 12 2 1 2 6 4 11 11 8 4 3 8 7 13 6 9 13 11 11 5 1 1 4 6
15 16 17 18 18 18 20 19 16 14 13 9 9 10 11 12 13 13 10 6 1 5 12 11 8 4 4 6 10 9 5 5 6 5 7 7 1 1 4 10 14 7 5 4 2 5 5
14 16 17 17 19 20 20 19 17 14 11 8 7 9 11 11 12 14 13 9 4 3 8 11 3 4 15 7 10 6 5 3 5 5 10 6 2 3 5 7 4 11 9 7 4 2 4
15 15 16 17 18 20 22 20 18 14 11 8 7 8 9 10 11 13 14 10 6 6 6 7 3 6 5 12 6 5 1 4 4 6 9 6 5 2 1 7 5 7 6 8 3 0 2
13 14 15 17 19 20 21 22 20 16 13 9 8 8 8 8 9 12 12 9 9 4 2 2 5 5 4 13 7 6 4 3 4 4 5 2 2 1 4 9 9 5 12 8 6 3 4
14 14 15 16 19 21 22 22 21 16 13 11 9 8 8 6 7 13 13 2 5 6 4 6 8 5 6 5 5 7 3 4 2 5 5 5 2 4 6 11 12 13 10 4 9 3 6
13 14 15 17 18 20 22 23 23 18 11 11 11 10 8 6 7 10 12 1 1 2 9 5 9 15 4 3 4 5 4 4 7 6 3 2 6 9 10 6 5 9 10 11 4 3 3
13 14 15 16 18 21 23 23 23 22 11 10 13 11 8 6 5 7 7 4 3 1 4 4 5 4 8 5 4 4 4 4 4 4 7 4 7 3 2 2 6 6 14 7 4 5 3
14 14 15 16 19 21 24 26 26 25 14 9 12 12 8 6 2 4 8 4 1 1 1 2 1 3 2 3 6 4 2 3 2 3 2 6 3 1 3 6 10 5 7 7 6 4 7
14 14 15 17 19 21 23 26 27 28 18 10 12 13 8 3 2 3 3 3 2 1 1 10 3 2 1 3 5 4 1 1 1 4 3 6 3 1 5 6 3 6 1 4 10 6 5
14 15 16 17 19 21 23 25 26 27 19 11 11 12 7 5 4 2 1 1 1 1 2 12 5 4 2 2 5 2 7 2 4 4 2 5 5 4 7 4 4 5 3 6 4 5 4
14 15 15 16 18 21 23 26 26 27 22 8 10 12 6 3 4 2 1 1 1 1 4 5 6 8 3 5 2 1 1 3 1 7 12 5 2 4 4 4 4 8 6 5 2 2 2
13 15 15 16 18 21 23 26 27 28 25 8 4 8 8 5 2 3 1 2 1 5 2 7 4 6 5 7 4 4 4 7 3 3 5 4 6 3 4 2 0 0 2 2 2 1 1
12 14 15 16 18 20 23 26 27 28 25 9 2 3 7 7 4 3 1 0 7 1 2 2 4 5 4 8 6 7 1 3 8 4 3 3 3 7 9 4 4 3 3 1 3 4 3
11 13 14 15 17 20 23 27 28 29 27 11 1 2 5 7 6 3 2 6 3 2 2 5 2 3 4 3 3 4 8 3 4 6 2 4 3 2 4 5 4 2 1 2 5 2 1
10 13 14 15 16 19 22 26 28 28 28 11 1 2 4 6 6 1 3 4 2 2 2 2 4 3 6 7 4 4 4 4 6 5 5 1 5 1 1 2 7 3 3 0 0 2 2
10 12 13 14 15 17 21 24 28 28 28 11 1 1 5 5 4 3 4 3 2 3 3 1 1 2 3 4 3 2 4 3 5 6 3 2 2 2 2 3 1 2 1 3 1 3 1
9 11 12 13 15 16 19 22 26 28 27 10 2 1 7 3 3 2 3 2 1 1 1 1 1 1 2 3 3 2 2 2 5 3 3 4 2 3 2 1 1 1 1 1 1 2 2
11 10 10 12 13 15 18 21 24 27 24 7 2 2 5 2 3 3 2 2 2 1 1 1 1 1 0 2 1 1 1 1 4 3 2 3 2 2 2 2 1 4 4 3 4 1 4
12 11 10 11 12 14 17 20 22 25 19 5 1 2 3 4 2 3 3 2 2 1 0 1 1 1 1 1 2 1 1 1 3 1 3 2 1 1 2 2 2 2 3 5 4 3 5
13 12 11 10 10 12 14 18 21 23 16 3 3 2 1 3 3 3 1 3 3 3 1 1 1 0 1 1 1 1 1 0 2 0 0 2 1 1 3 3 2 3 4 7 9 4 6
15 13 11 9 8 9 11 15 19 21 12 5 1 1 1 2 1 1 0 2 2 2 3 2 3 3 3 2 2 1 1 1 1 1 1 1 1 2 2 1 2 6 10 11 11 10 12
15 13 11 9 8 7 9 12 16 19 9 4 2 1 2 1 0 2 1 2 2 1 2 1 1 2 3 2 1 1 1 2 2 1 0 2 2 0 2 2 6 7 8 12 5 5 6
16 14 12 9 8 7 7 8 11 15 15 6 3 2 2 1 2 2 1 2 2 2 1 1 1 1 2 3 3 3 3 3 2 3 3 2 2 1 3 3 3 3 1 1 6 3 9
16 15 14 11 8 7 5 6 7 9 11 8 4 2 1 2 2 3 4 3 1 0 2 2 2 1 1 1 2 2 2 3 2 4 0 3 2 2 2 3 6 2 4 6 6 3 7
9 6 6 8 9 8 7 6 5 6 7 7 5 3 2 0 2 0 2 2 2 2 2 2 1 2 2 1 1 2 2 1 1 3 2 2 1 3 1 3 4 3 3 2 1 5 7
11 8 8 7 1 5 7 8 8 7 6 4 3 2 1 1 1 3 3 2 4 1 1 0 2 2 1 3 3 4 3 0 3 3 4 3 3 7 6 4 7 3 6 4 4 3 5
10 12 10 9 9 8 6 6 8 10 9 6 4 4 1 1 3 6 5 4 2 2 3 4 2 2 2 4 3 2 3 2 2 2 4 6 7 4 4 5 8 6 7 5 4 3 2
6 8 10 10 10 10 10 9 9 8 12 11 6 8 7 3 3 6 11 12 7 4 3 4 2 2 2 2 2 2 3 3 4 4 2 4 6 3 8 3 2 5 1 2 1 2 3
Wind_Direction
36 32 29 25 19 14 8 1 355 350 346 344 343 345 344 346 356 3 2 20 35 41 25 17 0 321 47 63 25 326 349 360 47 119 160 162 168 179 160 170 159 197 166 220 264 160 147
33 29 25 18 14 12 8 3 356 352 347 349 346 348 349 347 351 350 349 329 17 24 22 11 30 32 73 71 334 333 11 7 45 78 109 46 105 35 163 161 184 157 134 140 127 140 132
31 26 24 17 12 12 8 4 1 355 349 356 1 354 353 356 357 358 352 338 292 293 360 9 45 39 56 19 348 4 36 58 65 63 116 257 282 247 154 140 131 133 127 145 72 114 130
30 25 22 18 16 10 11 7 4 1 354 14 7 0 357 2 6 1 348 351 342 276 305 356 38 53 64 354 28 9 36 73 92 71 121 129 353 295 229 122 119 158 180 168 61 355 167
28 25 18 15 11 9 8 7 5 3 3 18 16 4 360 355 358 2 339 326 6 53 248 332 42 70 18 346 12 346 22 106 99 46 64 56 350 32 150 175 147 165 183 179 133 37 174
26 19 18 15 11 8 10 8 6 5 12 17 13 5 357 355 358 8 5 80 65 47 78 98 54 73 354 311 334 321 348 68 105 131 28 6 298 173 177 185 170 172 158 161 148 53 187
21 16 14 10 12 10 7 5 6 2 5 10 6 346 340 338 347 359 2 345 337 126 33 52 105 102 214 291 339 59 9 127 96 55 144 255 194 157 163 233 79 155 157 135 94 19 172
20 15 10 11 10 13 11 6 4 1 352 352 357 355 332 317 331 1 12 62 65 27 82 11 111 121 58 159 61 7 2 86 95 103 260 198 123 19 20 177 136 160 145 118 98 16 232
18 13 11 11 14 16 14 10 5 1 360 353 355 355 352 320 316 20 69 80 50 103 223 91 352 164 209 310 46 90 6 124 144 262 49 118 68 317 113 144 139 78 165 152 133 129 72
18 14 14 14 16 15 13 12 9 10 10 4 0 1 6 355 150 84 70 28 13 153 114 358 8 61 152 209 31 334 157 297 327 66 54 68 24 129 96 84 320 128 47 124 134 177 154
16 15 16 16 14 13 12 11 11 9 6 4 6 5 14 40 117 74 102 11 50 223 49 336 341 336 23 82 138 277 326 339 45 36 261 37 33 37 41 3 329 102 137 107 115 104 134
14 15 15 12 11 11 11 10 9 7 5 356 10 14 17 33 68 70 27 94 165 223 43 355 328 356 335 28 82 261 354 32 347 75 65 65 55 29 12 16 65 137 121 97 101 118 98
12 8 9 9 8 8 8 8 6 4 1 358 355 19 30 43 54 351 352 213 34 58 304 347 341 349 333 4 26 25 61 51 29 76 28 50 39 22 4 77 27 279 154 108 122 165 95
355 1 3 5 4 5 4 4 4 0 1 359 342 5 27 44 4 348 226 191 64 242 333 343 322 310 47 358 35 4 75 68 49 22 106 99 125 6 351 22 345 31 339 227 147 174 125
347 350 356 360 360 1 1 2 0 359 357 356 352 102 36 353 357 344 246 53 146 211 285 324 292 15 30 49 9 19 25 28 6 1 26 135 92 321 26 19 324 117 277 25 103 81 205
339 344 348 354 357 359 0 1 358 357 354 356 318 114 24 352 353 21 72 107 135 235 295 292 39 17 19 6 23 22 21 29 347 10 328 137 112 343 329 242 60 13 98 244 90 130 192
323 343 347 347 353 356 359 360 359 356 355 352 44 214 355 5 26 51 73 91 162 215 247 357 24 1 35 13 12 56 22 40 3 335 356 340 290 129 245 25 81 147 161 63 73 360 341
320 345 345 345 350 352 357 359 359 357 359 354 28 346 345 40 51 32 60 69 227 181 224 180 149 28 33 15 29 67 58 353 353 320 15 18 357 126 90 104 307 301 178 198 261 140 66
308 323 340 346 349 350 353 359 359 360 1 349 18 309 340 2 77 78 91 75 7 340 355 337 125 333 136 40 82 89 109 189 353 16 24 349 51 123 145 178 190 241 184 146 110 89 204
294 309 328 342 345 349 351 356 359 358 358 21 339 339 19 57 26 109 142 122 139 120 11 339 8 304 211 79 48 75 124 168 348 60 58 259 88 327 332 33 344 214 195 212 244 191 184
286 296 305 322 339 346 351 355 358 357 354 54 14 92 32 359 60 72 143 154 159 171 200 161 131 58 359 347 29 17 325 273 164 32 126 296 207 287 265 237 243 249 217 201 221 269 251
278 284 293 306 327 349 356 358 1 1 359 69 12 218 145 95 317 214 11 173 186 166 204 186 193 187 195 198 213 230 218 222 316 43 68 46 95 327 259 181 240 267 247 231 232 247 260
264 266 276 293 308 332 351 0 3 7 18 60 54 67 267 81 136 268 193 164 166 148 163 351 322 214 228 281 251 74 87 58 6 304 120 312 161 42 256 350 302 258 255 207 202 224 251
253 255 262 272 286 304 331 354 6 13 26 84 49 349 282 166 232 226 195 232 204 190 268 117 159 253 69 71 91 103 91 94 130 48 341 173 172 282 300 301 234 76 81 162 200 221 216
233 244 253 250 261 278 301 326 355 4 17 46 67 102 353 289 279 233 210 207 153 184 207 210 161 130 140 167 254 247 189 187 90 34 239 339 260 225 264 251 318 180 185 169 193 161 199
47 87 129 208 245 258 270 285 302 327 350 13 35 73 116 291 228 17 165 211 240 209 206 205 131 151 136 155 217 270 281 356 190 144 70 112 86 260 211 251 256 85 153 147 177 194 183
18 14 10 8 17 225 254 267 270 278 295 321 322 27 70 245 201 188 218 207 146 148 284 355 165 175 293 190 218 215 222 167 233 205 164 163 188 224 225 262 279 185 137 147 223 96 172
9 8 2 354 341 335 302 261 260 258 264 269 283 259 265 258 259 202 204 182 156 197 197 135 169 172 144 208 218 200 224 191 248 182 192 190 177 196 183 224 264 143 131 218 76 127 155
351 343 348 353 343 338 321 303 279 275 244 245 250 236 225 234 282 237 238 244 227 198 166 177 333 170 192 164 213 149 207 200 220 242 196 229 230 209 213 223 63 199 274 146 173 235 178